sat.trackr.live / text

‹ back to catalog

STARLINK-30907

NORAD 58352 · 2023-177B

PAYLOAD ACTIVE UNKNOWN

§ Identity

Operator
Country
US
Launch date
2023-11-18
Launch site
AFETR
Launch vehicle
Mass (kg)
RCS (m²)

Purposes: comms

External: N2YO · Heavens-Above · Gunter

§ Orbital elements

Epoch: 2026-05-24T19:43:22.111680Z

Period
94.27 min
Inclination
43.0021°
Eccentricity
0.0001620
Mean motion
15.27584138 rev/d
Perigee alt
481.9 km
Apogee alt
484.1 km
Semi-major
6,861.2 km
B*
7.2126e-5
RAAN
280.4042°
Arg perigee
244.5719°
Mean anomaly
115.4965°
Rev number
13,996

§ Raw data

STARLINK-309071 58352U 23177B   26144.82178370  .00001723  00000+0  72126-4 0  99902 58352  43.0021 280.4042 0001620 244.5719 115.4965 15.27584138139969

JSON: /api/v1/satellites/58352 · /tle

For live sub-satellite position, see the globe view (requires WebGL).

§ Visibility from observer

Set your observer location to see the next 7 days of passes ≥ 10°. The values pass through the URL so the page stays shareable.

No JS? Fill the form by hand. The geolocation button needs JavaScript.